Location: Ab? ar R?sh Ba?r?
(24.1861°N, 32.8847°E)
Time: 20:07:49
(UTC+00:00)

Milstar 3 Cent rocket - Pass Details

Date: 30 May 2022
Orbit: 706 x 5146 km, 28.3° (Epoch: 02 July)

Event Time Altitude Azimuth Distance (km) Brightness Sun altitude
Rises 18:06:09 0° 288° (WNW) 8,673 8.7 -19.5°
Reaches altitude 10° 18:13:20 10° 286° (WNW) 7,014 7.9 -20.8°
Maximum altitude 18:32:32 55° 214° (SW) 2,484 4.4 -24.2°
Enters shadow 18:37:07 35° 157° (SSE) 2,530 4.1 -25.0°
